Location: Newark
(52.3735°N, 16.9806°E)
Time: 07:45:37
(UTC+00:00)

ISS - Pass Details

Date: 05 October 2021
Orbit: 417 x 423 km, 51.6° (Epoch: 27 October)

Event Time Altitude Azimuth Distance (km) Brightness Sun altitude
Rises 16:45:34 0° 282° (WNW) 2,366 2.1 -4.8°
Reaches altitude 10° 16:47:51 10° 269° (W) 1,500 1.0 -5.1°
Maximum altitude 16:50:45 27° 210° (SSW) 848 -1.8 -5.5°
Drops below altitude 10° 16:53:38 10° 151° (SSE) 1,496 -1.2 -6.0°
Sets 16:55:54 0° 139° (SE) 2,358 -0.3 -6.3°
